This demonstration page uses our WeatherBlox Daily Observations layout. Learn more.

Hourly Observations for December 21, 2019

Temp ( °F °C ) Dew Point ( °F °C ) Humidity (%) Winds ( mph kmh ) Pressure ( in mb ) Visibility ( mi km ) Precip ( " mm )
12:54 am 00:54 Clear 19 -7.2 15 -9.4 84 84 Calm 30.31 1027 10 16.0934 0 0
1:54 am 01:54 Clear 21 -6.1 16 -8.9 81 81 S 3 6 30.31 1026 10 16.0934 0 0
2:54 am 02:54 Clear 22 -5.6 17 -8.3 82 82 Calm 30.32 1027 10 16.0934 0 0
3:54 am 03:54 Clear 19 -7.2 16 -8.9 88 88 Calm 30.3 1026 10 16.0934 0 0
4:54 am 04:54 Clear 18 -7.8 15 -9.4 88 88 SE 3 6 30.29 1026 10 16.0934 0 0
5:54 am 05:54 Clear 19 -7.2 16 -8.9 88 88 Calm 30.32 1027 10 16.0934 0 0
6:54 am 06:54 Clear 19 -7.2 15 -9.4 84 84 SE 5 7 30.32 1027 10 16.0934 0 0
7:54 am 07:54 Sunny 20 -6.7 16 -8.9 85 85 SSE 6 9 30.33 1027 10 16.0934 0 0
8:54 am 08:54 Sunny 24 -4.4 21 -6.1 88 88 SSE 5 7 30.31 1027 10 16.0934 0 0
9:54 am 09:54 Sunny 30 -1.1 24 -4.4 79 79 SSE 5 7 30.32 1027 10 16.0934 0 0
10:54 am 10:54 Sunny 42 5.6 27 -2.8 55 55 SSW 8 13 30.29 1026 10 16.0934 0 0
11:54 am 11:54 Sunny 49 9.4 25 -3.9 39 39 SSW 10 17 30.25 1025 10 16.0934 0 0
12:54 pm 12:54 Sunny 51 10.6 25 -3.9 36 36 SW 15 24 30.24 1024 10 16.0934 0 0
1:54 pm 13:54 Sunny 54 12.2 25 -3.9 33 33 SSW 14 22 30.2 1023 10 16.0934 0 0
2:54 pm 14:54 Sunny 55 12.8 25 -3.9 31 31 SSW 14 22 30.19 1022 10 16.0934 0 0
3:54 pm 15:54 Sunny 54 12.2 25 -3.9 33 33 S 12 19 30.19 1022 10 16.0934 0 0
4:54 pm 16:54 Sunny 43 6.1 23 -5 45 45 S 13 20 30.2 1023 10 16.0934 0 0
5:54 pm 17:54 Clear 39 3.9 25 -3.9 57 57 S 8 13 30.21 1023 10 16.0934 0 0
6:54 pm 18:54 Clear 38 3.3 26 -3.3 62 62 SSE 7 11 30.22 1023 10 16.0934 0 0
7:54 pm 19:54 Clear 37 2.8 27 -2.8 67 67 S 10 17 30.22 1023 10 16.0934 0 0
8:54 pm 20:54 Clear 36 2.2 29 -1.7 76 76 S 10 17 30.22 1023 10 16.0934 0 0
9:54 pm 21:54 Clear 36 2.2 29 -1.7 76 76 S 7 11 30.21 1023 10 16.0934 0 0
10:54 pm 22:54 Clear 36 2.2 29 -1.7 76 76 S 7 11 30.2 1023 10 16.0934 0 0
11:54 pm 23:54 Clear 37 2.8 29 -1.7 73 73 SSW 12 19 30.19 1022 10 16.0934 0 0

Powered by AerisWeather